Погода Ростов-на-Дону

Погода Ростов-на-Дону : погода сейчас, прогноз погоды и архив. Всё, что Вы хотите узнать о погоде Ростов-на-Дону!

Хотите узнать прогноз погоды в Ростове-На-Дону? Тогда Вам сюда: Погода в Ростове-На-Дону

Поиск расширенной информации на нашем сайте:

Другие новости

Новости СМИ2

Главная страница сайта

Новости сайта

03.07.2017

Напоминаем, что на нашем специализированном сайте Метеоцентр.Азия вы можете получить высокодетализированные автоматические прогнозы погоды по пунктам России, СНГ и мира в авиационном формате (включающие направление и скорость ветра, видимость, явления погоды, количество и форму облачности, нижнюю и верхнюю границу облачности).


Погода Ростов-на-Дону - сегодня

Время (UTC), дата Ветер
(°,м/с) 
Видим.   Явления Облачность Т
(°С)
Тd
(°С)
f(%) Тe
(°С)
Pmin
(гПа)
dP
(гПа)
Po
(мм)
O2
(г/м3)
Тmin Tmax R s Состояние
почвы
06 15.08.17 070 (В) 6{10}  10 км    8/1 1500 м кучево-дожд., средняя, верхняя 
[Cb calv|Ac trans|Ci fib]
+24.7 +11 42 +27  1014.2  0.5  754  277           
09 15.08.17 070 (В) 8-11{12}  10 км    6/0 средняя, верхняя 
[Ac trans|Ci fib]
+30.9 +9.1 26 +31  1014.3  0.2  754  272           
12 15.08.17 060 (СВ) 8-11{12}  10 км    5/0 средняя, верхняя 
[Ac trans|Ci fib]
+32.4 +7.8 22 +32  1013.3  -0.9  754  270           
15 15.08.17 070 (В) 7{12}  10 км    8/0 средняя, верхняя 
[Ac trans|Ci]
+30.8 +6.2 21 +31  1013.8  0.5  754  272    +32.9       
18 15.08.17 080 (В) 7{12}  8000 м    5/0 средняя, верхняя 
[Ac trans|Ci fib]
+27 +5.5 25 +27  1015  755  276           
21 15.08.17 050 (СВ) 8000 м  дым  5/0 средняя, верхняя 
[Ac trans|Ci fib]
+23.3 +5.5 32 +23  1015.2  0.1  755  279           
00 16.08.17 050 (СВ) 8000 м    6/0 средняя, верхняя 
[Ac trans|Ci fib]
+22.4 +4.4 31 +22  1015.3  755  280           
03 16.08.17 070 (В) 10 км    8/0 средняя, верхняя 
[Ac trans|Ci fib]
+19 +6.6 44 +20  1015.5  755  283  +18.4         
06 16.08.17 050 (СВ) 10 км    8/0 средняя, верхняя 
[Ac trans|Ci]
+23.6 +8.8 39 +24  1015.8  0.5  755  279           
09 16.08.17 070 (В) 6{10}  10 км    9/0 средняя, верхняя 
[Ac trans|Ci]
+29.7 +9.2 28 +30  1015.5  755  273           
12 16.08.17 110 (В) 7-10{13}  10 км    9/3 1000 м средняя, верхняя 
[Cu med, cong|Ac trans|Ci]
+32.5 +6.9 20 +33  1014.7  -0.8  755  271           
15 16.08.17 080 (В) 7-10{12}  10 км    8/1 1500 м средняя, верхняя 
[Cu hum|Ac trans|Ci]
+31.3 +6.9 22 +31  1014.4  -0.1  755  272    +32.9       
18 16.08.17 070 (В) 7-10{12}  8000 м    8/0 средняя, верхняя 
[Ac trans|Ci fib]
+28 +6.2 25 +28  1015.1  0.5  755  275           
21 16.08.17 040 (СВ) 2000 м    ясно 
+26 +3.8 24 +26  1015  754  277           
00 17.08.17 060 (СВ) 6{11}  8000 м    3/0 верхняя 
[Ci fib]
+23.1 +6.4 34 +23  1015.1  755  279           
03 17.08.17 050 (СВ) 10 км    4/0 средняя, верхняя 
[Ac trans|Ci fib]
+20.8 +8.2 44 +21  1015.7  0.4  755  281  +20.6         
06 17.08.17 070 (В) 7{11}  10 км    1/0 средняя 
[Ac trans]
+25.6 +10.2 38 +27  1016.4  0.7  756  277           
09 17.08.17 080 (В) 8-12{14}  10 км    ясно 
+31.4 +5.6 20 +31  1015.2  -1  755  272           
12 17.08.17 070 (В) 9-12{15}  10 км    1/0 средняя 
[Ac trans]
+33 +6.1 19 +33  1013.8  -1.2  754  270           
15 17.08.17 070 (В) 8-11{15}  10 км    3/0 средняя 
[Ac trans]
+32.1 +4.8 18 +32  1012.9  -0.9  753  271    +33.2       
18 17.08.17 040 (СВ) 6{15}  8000 м    5/0 средняя, верхняя 
[Ac trans|Ci fib]
+28.5 +3.2 20 +29  1013.5  0.4  754  275           
21 17.08.17 080 (В) 5{12}  8000 м    6/0 средняя, верхняя 
[Ac trans|Ci fib]
+25.3 +6.5 30 +25  1014.3  0.6  754  277           
00 18.08.17 070 (В) 5{12}  8000 м    3/0 верхняя 
[Ci fib]
+23.2 +6.6 34 +23  1015.4  755  279           
03 18.08.17 080 (В) 7-10{11}  10 км    3/0 верхняя 
[Ci fib]
+21.7 +5.3 34 +22  1016.4  0.9  756  281  +21.7         
06 18.08.17 080 (В) 8-11{12}  10 км    4/0 верхняя 
[Ci fib]
+25.1 +7.1 32 +25  1017.5  1.2  757  278  +21.6         
Время (UTC), дата Ветер
(°,м/с) 
Видим.   Явления Облачность Т
(°С)
Тd
(°С)
f(%) Тe
(°С)
Pmin
(гПа)
dP
(гПа)
Po
(мм)
O2
(г/м3)
Тmin Tmax R s Состояние
почвы

Для получения пояснительной информации подведите курсор к названию столбца.

ПОГОДА Ростов-на-Дону - архив

Всё, что Вы хотите узнать о погоде Ростов-на-Дону - удобно и подробно!

Выберите нужную дату (начиная с 1 января 2015* года) и нажмите кнопку "Найти".
Будут отображены архивные сводки погоды по пункту Ростов-на-Дону, начиная с указанной даты.


Отображать данные в формате CSV (для использования в таблицах Excel)


Внимание! Наш архив погоды предназначен исключительно для личного некоммерческого использования в познавательных целях. Если Вам необходимы официальные справки о состоянии погоды (для производственных, юридических, коммерческих и т.п. целей), обращайтесь в органы Росгидромета.

*Примечание: данная дата относится к архиву по метеостанциям СССР (Россия, СНГ, Балтия).
Архив по метеостанциям Зарубежной Европы и Азии (кроме Китая) хранится 10 дней, по другим регионам земного шара (Китай, Африка, Америка, Австралия, Океания) - 1 день.

Ростов-на-Дону - район местоположения метеостанции


Название, широта, долгота, высота метеостанции:
Ростов-на-Дону (город) 47.3°ш. 39.8°д. 75 м над ур. моря [Российская Федерация]

Дополнительная информация

В oтличие oт бoльшинства пoгoдных сайтoв мы публикуем пoдрoбную метеoинфoрмацию в детальнoм прoфессиoнальнoм фoрмате.

Характеристики температуры и влажнoсти вoздуха измеряются на высoте 2 м в тени вдали oт зданий и деревьев.
Скoрoсть ветра измеряется на высoте 10 м (на урoвне рoста челoвека скoрoсть ветра ниже в 1.5-2 раза). Если метеoстанция нахoдится в гoрoде или в лесу, тo скoрoсть ветра занижена на 2-4 м/с пo сравнению с oткрытым местoм. Скoрoсть ветра над акватoриями крупных рек и oзёр, а также на вершинах хoлмoв на 2-5 м/с выше, чем в oбычных услoвиях.
Атмoсфернoе давление в разных тoчках местнoсти мoжет значительнo oтличаться oт давления на метеoстанции, в зависимoсти oт услoвий рельефа (при пoдъёме на 10 м давление пoнижается примернo на 1 мм рт.ст.).